Fort Smith, AR

7:43 AM CDT on June 25, 2017 (GMT -0500)
Fort Smith Regional

Weather History for KFSM - October, 2011

Change the Weather History Date:

Monday, October 24, 2011

  Actual Average Record
Temperature  
Mean Temperature 67 °F 60 °F  
Max Temperature 80 °F 72 °F 91 °F (2003)
Min Temperature 54 °F 48 °F 28 °F (1982)
Degree Days  
Heating Degree Days 0 6  
Month to date heating degree days 49 87  
Since 1 July heating degree days 57 104  
Cooling Degree Days 2 1  
Month to date cooling degree days 97 60  
Year to date cooling degree days 2823 2038  
Growing Degree Days 16 (Base 50)    
Moisture  
Dew Point 55 °F    
Average Humidity 74    
Maximum Humidity 100    
Minimum Humidity 48    
Precipitation  
Precipitation 0.00 in 0.14 in 2.11 in (1991)
Month to date precipitation 2.46 3.32  
Year to date precipitation 34.67 36.73  
Sea Level Pressure  
Sea Level Pressure 30.15 in    
Wind  
Wind Speed 3 mph (ENE)    
Max Wind Speed 9 mph    
Max Gust Speed 12 mph    
Visibility 4 miles    
Events Fog    
T = Trace of Precipitation, MM = Missing Value Source: NWS Daily Summary

Daily Weather History Graph

Daily Weather History Graph

Search for Another Location

Airport or City:

Trip Planner

Search our weather history database for the weather conditions in past years. The results will help you decide how hot, cold, wet, or windy it might be!

Date:

Astronomy

Oct. 24, 2011 Rise Set
Actual Time 7:31 AM CDT 6:31 PM CDT
Civil Twilight 7:05 AM CDT 6:57 PM CDT
Nautical Twilight 6:35 AM CDT 7:27 PM CDT
Astronomical Twilight 6:06 AM CDT 7:56 PM CDT
Moon 4:55 AM CDT (10/24) 4:54 PM CDT (10/24)
Length of Visible Light 11h 51m
Length of Day
11h 00m
Waning Crescent, 7% of the Moon is Illuminated
Oct 24
Waning Crescent
Oct 26
New
Nov 2
First Quarter
Nov 10
Full
Nov 18
Last Quarter

Hourly Weather History & Observations

Time (CDT) Temp. Heat Index Dew Point Humidity Pressure Visibility Wind Dir Wind Speed Gust Speed Precip Events Conditions
12:53 AM 55.9 °F - 53.1 °F 90% 30.12 in 10.0 mi Calm Calm - N/A   Clear
1:53 AM 55.9 °F - 52.0 °F 87% 30.12 in 10.0 mi Calm Calm - N/A   Clear
2:17 AM 55.4 °F - 53.6 °F 94% 30.12 in 1.2 mi ENE 3.5 mph - N/A   Clear
2:20 AM 53.6 °F - 51.8 °F 94% 30.12 in 0.8 mi ENE 3.5 mph - N/A   Mist
2:31 AM 53.6 °F - 51.8 °F 94% 30.12 in 0.5 mi ENE 4.6 mph - N/A Fog Fog
2:47 AM 55.4 °F - 53.6 °F 94% 30.12 in 0.2 mi ENE 3.5 mph - N/A Fog Fog
2:53 AM 55.9 °F - 54.0 °F 93% 30.11 in 0.2 mi Calm Calm - N/A Fog Fog
3:04 AM 55.4 °F - 53.6 °F 94% 30.11 in 0.2 mi ENE 3.5 mph - N/A Fog Fog
3:14 AM 55.4 °F - 53.6 °F 94% 30.11 in 0.2 mi ENE 3.5 mph - N/A Fog Fog
3:53 AM 55.9 °F - 54.0 °F 93% 30.12 in 0.2 mi Calm Calm - N/A Fog Fog
4:09 AM 55.4 °F - 53.6 °F 94% 30.13 in 0.2 mi Calm Calm - N/A Fog Fog
4:23 AM 55.4 °F - 55.4 °F 100% 30.13 in 0.5 mi NNE 4.6 mph - N/A Fog Fog
4:53 AM 57.0 °F - 55.0 °F 93% 30.13 in 0.8 mi NE 4.6 mph - N/A   Mist
5:23 AM 55.4 °F - 53.6 °F 94% 30.15 in 0.2 mi ENE 3.5 mph - N/A Fog Fog
5:31 AM 55.4 °F - 53.6 °F 94% 30.15 in 0.2 mi East 5.8 mph - N/A Fog Fog
5:39 AM 55.4 °F - 53.6 °F 94% 30.15 in 0.2 mi ENE 6.9 mph - N/A Fog Fog
5:53 AM 55.9 °F - 54.0 °F 93% 30.14 in 0.2 mi ENE 4.6 mph - N/A Fog Fog
6:53 AM 55.9 °F - 54.0 °F 93% 30.17 in 0.2 mi Calm Calm - N/A Fog Fog
7:53 AM 55.0 °F - 54.0 °F 96% 30.19 in 0.2 mi Calm Calm - N/A Fog Fog
8:53 AM 54.0 °F - 53.1 °F 97% 30.21 in 0.2 mi ESE 3.5 mph - N/A Fog Fog
9:53 AM 55.4 °F - 53.6 °F 94% 30.22 in 0.2 mi ENE 3.5 mph - N/A Fog Fog
10:12 AM 55.4 °F - 53.6 °F 94% 30.22 in 0.2 mi Calm Calm - N/A Fog Fog
10:50 AM 57.2 °F - 55.4 °F 94% 30.23 in 0.2 mi Calm Calm - N/A Fog Fog
10:53 AM 57.0 °F - 55.0 °F 93% 30.22 in 0.2 mi ENE 3.5 mph - N/A Fog Fog
11:43 AM 60.8 °F - 57.2 °F 88% 30.22 in 8.0 mi NE 4.6 mph - N/A   Mostly Cloudy
11:53 AM 62.1 °F - 57.0 °F 84% 30.22 in 10.0 mi NNE 4.6 mph - N/A   Clear
12:53 PM 68.0 °F - 57.9 °F 70% 30.19 in 10.0 mi ENE 4.6 mph - N/A   Clear
1:53 PM 73.9 °F - 59.0 °F 59% 30.16 in 10.0 mi North 3.5 mph - N/A   Clear
2:53 PM 77.0 °F - 57.9 °F 52% 30.13 in 10.0 mi ENE 5.8 mph - N/A   Clear
3:53 PM 80.1 °F 80.7 °F 59.0 °F 48% 30.12 in 10.0 mi NE 8.1 mph - N/A   Clear
4:53 PM 79.0 °F - 57.9 °F 48% 30.11 in 10.0 mi ENE 6.9 mph - N/A   Clear
5:53 PM 77.0 °F - 57.9 °F 52% 30.10 in 10.0 mi ENE 5.8 mph - N/A   Clear
6:53 PM 71.1 °F - 59.0 °F 66% 30.10 in 10.0 mi ENE 4.6 mph - N/A   Clear
7:53 PM 70.0 °F - 57.9 °F 65% 30.11 in 10.0 mi Calm Calm - N/A   Clear
8:53 PM 66.9 °F - 57.0 °F 70% 30.12 in 10.0 mi Calm Calm - N/A   Clear
9:53 PM 66.2 °F - 55.4 °F 68% 30.12 in 10.0 mi ESE 3.5 mph - N/A   Clear
10:53 PM 62.1 °F - 55.0 °F 78% 30.12 in 10.0 mi Calm Calm - N/A   Clear
11:53 PM 60.1 °F - 55.0 °F 83% 30.12 in 10.0 mi ENE 3.5 mph - N/A   Clear